Wind_Speed
24 22 21 22 22 21 23 23 23 24 24 24 23 23 24 24 24 21 19 20 21 21 21 21 21 20 19 19 19 18 16 14 15 13 11 15 16 15 16 16 16 16 15 15 13 11 9 7 7 7 8 7 7 8 7 7 8 9 10 10 10 9 8 7 6 4 8 9 4 2 3 5 5 7 8 9 6 5 6 5 6 3 4 7 8
27 23 22 24 23 23 23 22 23 25 25 24 23 24 25 25 23 19 19 21 21 22 22 21 20 20 21 22 21 19 16 13 13 11 12 15 14 14 15 15 15 14 13 12 10 8 7 7 7 7 8 7 7 7 7 8 8 9 9 8 8 9 7 6 6 4 5 7 4 2 3 3 4 4 5 10 8 6 6 5 8 7 1 6 6
28 25 24 26 25 25 23 22 24 26 26 25 23 22 24 25 22 19 19 21 21 22 22 20 19 18 20 21 21 20 18 14 11 10 12 14 14 14 14 14 13 12 12 10 8 7 7 7 7 7 8 7 6 7 7 8 8 8 8 8 8 8 8 7 5 3 3 7 7 4 3 2 4 4 5 8 8 6 6 4 9 9 0 5 4
29 25 25 27 27 26 24 23 26 26 25 25 23 22 23 24 23 19 19 21 22 22 20 20 19 17 18 17 18 20 19 17 14 11 10 13 14 13 13 13 12 11 10 9 8 8 7 7 6 6 7 8 8 7 8 8 8 9 8 8 6 5 7 8 6 4 2 4 5 3 3 4 4 4 4 6 6 6 8 5 8 10 3 2 2
30 26 26 28 27 28 26 24 26 26 24 24 24 23 22 23 23 20 20 22 22 21 19 19 20 19 18 17 18 19 19 18 17 15 11 13 15 13 12 12 12 11 10 9 9 7 7 7 6 7 7 8 9 8 8 7 8 9 9 7 5 4 6 8 7 4 1 2 3 2 2 3 2 5 3 3 0 2 8 9 9 9 6 3 1
30 27 27 27 27 28 27 25 26 25 24 23 23 23 22 23 22 20 21 22 23 22 20 21 21 20 20 20 21 21 20 19 18 17 13 13 14 13 13 12 12 11 10 10 9 7 6 6 7 8 7 7 9 9 8 7 8 8 8 7 5 4 6 6 6 5 4 4 3 2 2 2 2 4 5 2 2 5 5 6 8 6 5 5 2
28 26 26 27 27 28 27 26 26 25 24 23 22 22 23 23 22 21 21 22 23 24 23 22 21 20 20 21 21 20 20 19 17 15 11 11 12 12 13 13 12 12 10 10 9 8 6 5 6 7 7 8 7 7 7 7 7 7 5 4 4 5 6 5 5 5 6 5 3 1 2 3 3 3 5 5 2 3 3 2 2 3 5 5 1
28 27 26 27 28 28 28 27 26 25 23 23 23 22 21 22 22 22 23 23 23 24 23 21 20 20 20 21 19 18 19 18 17 16 12 10 11 10 12 13 12 11 10 9 8 8 7 6 7 7 8 8 7 6 6 6 6 5 3 4 5 6 6 5 4 4 4 4 4 4 3 2 2 1 3 4 2 1 2 3 3 4 4 4 3
29 28 27 28 29 28 28 27 26 24 23 24 26 23 20 20 21 23 24 23 23 22 21 20 19 19 21 21 19 18 18 18 18 17 15 14 12 10 12 13 12 10 9 9 8 8 8 7 7 7 7 7 7 8 6 4 4 3 3 4 5 7 7 6 5 4 4 4 5 7 4 3 3 0 4 2 1 5 5 4 2 3 4 4 3
29 28 28 28 29 28 28 27 26 24 24 25 26 24 21 20 21 23 24 22 21 21 20 19 20 20 21 22 20 19 19 18 19 18 17 18 14 12 13 13 13 12 10 9 8 8 9 7 7 7 7 6 7 8 6 4 4 4 4 4 5 7 8 8 7 5 5 4 4 5 4 2 1 3 4 1 2 5 6 5 4 2 1 2 2
30 29 27 28 29 28 28 28 26 25 25 26 27 25 23 21 21 23 24 21 21 21 20 20 20 20 21 22 20 18 19 19 20 19 19 20 17 13 13 13 14 13 11 10 9 9 9 8 7 7 8 7 7 8 6 4 5 5 4 4 4 5 8 8 8 7 5 4 4 4 3 1 3 5 3 1 2 3 4 5 3 2 2 2 1
31 30 27 27 29 29 29 28 27 27 28 27 28 27 25 23 22 23 24 22 22 22 21 20 20 20 20 21 20 18 18 19 19 19 21 22 18 14 13 13 14 14 11 10 9 9 9 9 8 8 8 8 7 7 6 5 5 4 4 4 4 5 7 7 8 8 7 5 4 2 1 2 4 6 5 3 4 5 3 5 3 2 3 4 2
30 31 28 28 29 29 30 29 27 29 29 28 29 29 26 25 24 25 24 22 22 22 22 21 21 21 21 20 20 18 18 18 18 19 19 19 17 15 14 13 13 13 11 10 10 9 10 10 9 8 8 7 7 7 7 7 7 6 4 4 5 5 5 6 7 8 8 5 4 2 2 4 5 7 7 6 5 5 4 5 5 4 4 5 3
27 32 31 29 30 30 30 29 29 30 30 29 29 28 27 25 25 26 25 23 23 22 22 22 21 22 22 21 20 18 17 17 17 17 17 16 15 14 13 12 13 12 11 10 10 10 10 10 9 8 8 7 7 7 8 8 8 8 6 5 5 5 5 6 7 7 7 6 5 4 3 4 5 6 6 5 5 5 6 7 7 6 6 7 7
24 31 33 31 31 31 31 30 30 30 30 29 29 29 28 25 24 27 26 24 23 23 23 23 22 22 22 22 21 18 17 18 17 16 16 16 14 12 12 13 12 12 11 10 11 10 10 10 10 9 8 8 7 8 8 8 8 8 8 7 6 6 6 6 7 7 8 7 6 5 4 5 5 5 5 4 5 5 5 6 6 6 7 8 9
23 28 33 32 31 32 32 31 30 29 29 31 31 30 29 27 24 25 27 25 24 24 24 23 23 22 21 23 23 19 17 18 18 16 15 15 14 12 12 12 12 12 12 10 11 10 10 11 11 10 9 8 8 9 9 9 9 9 10 9 7 7 8 8 7 8 8 7 7 6 5 5 5 5 5 5 5 4 4 5 6 7 8 9 9
27 27 30 32 33 33 33 32 32 30 30 31 31 30 30 28 25 24 26 26 24 24 24 23 23 22 21 22 24 22 19 17 16 15 14 14 13 12 12 12 12 13 13 11 11 11 10 11 11 10 9 9 9 9 9 9 10 10 9 9 8 8 8 8 8 8 8 8 8 7 6 5 5 5 6 6 5 6 6 6 6 6 8 9 9
31 28 26 30 34 36 34 33 34 33 32 30 28 28 29 27 25 23 25 27 25 24 24 23 23 23 22 22 23 23 21 18 17 16 15 14 13 12 13 13 13 13 13 12 12 12 12 12 11 9 9 9 10 10 10 10 9 9 9 8 8 9 8 7 7 8 9 9 8 7 7 7 6 6 7 7 7 7 7 7 6 6 8 9 9
34 30 26 25 31 37 36 34 35 35 33 30 28 28 29 27 24 22 24 26 26 25 24 23 23 22 22 22 22 21 20 18 17 16 15 15 14 14 14 14 14 14 13 12 12 12 13 12 10 10 9 9 10 10 10 10 9 8 8 7 8 9 8 7 7 8 9 9 9 8 8 9 8 8 9 9 8 6 5 7 7 7 8 9 9
34 32 29 24 28 36 37 35 36 35 32 29 29 30 29 27 25 23 23 26 26 25 25 24 23 22 21 22 22 21 20 19 17 15 15 16 16 15 14 14 14 14 13 12 11 12 12 11 11 11 10 9 10 10 10 10 9 9 8 8 8 8 8 7 7 7 8 9 10 8 8 9 10 11 11 12 10 7 5 6 8 9 9 9 10
32 31 29 24 25 34 37 35 35 34 30 29 29 30 30 27 25 23 24 26 27 26 25 24 23 22 21 21 22 22 21 20 19 17 16 16 16 16 15 14 14 14 14 13 12 12 11 11 12 12 11 10 10 9 9 10 9 9 9 9 8 8 7 6 7 7 7 9 9 8 8 9 10 11 11 11 10 8 5 6 8 10 10 10 11
31 30 29 24 23 29 34 34 34 33 31 30 30 30 29 27 24 23 23 26 27 26 25 24 23 23 22 20 20 21 21 21 20 19 19 17 16 16 15 14 14 15 15 14 13 12 11 11 12 12 11 11 11 10 9 10 10 9 9 9 9 9 7 6 7 7 7 8 9 8 9 9 9 9 8 7 6 6 5 6 8 10 10 10 11
24 25 26 25 22 24 30 31 32 34 33 31 31 30 28 26 24 23 23 24 25 26 24 23 22 22 22 19 19 20 21 22 22 20 20 18 16 16 16 15 14 13 14 14 14 13 13 13 14 12 12 12 12 11 11 10 10 9 9 9 10 10 8 7 7 7 6 8 8 9 10 9 7 6 4 5 5 5 6 8 9 10 11 11 10
21 22 25 28 27 27 29 28 27 32 33 32 32 30 27 26 25 24 25 23 23 25 25 22 21 21 21 19 18 19 19 21 23 21 20 18 16 15 16 16 15 14 14 14 15 15 15 15 14 13 14 14 13 12 12 12 11 10 10 9 9 9 9 8 7 7 7 8 8 8 8 7 6 5 4 6 8 8 9 10 10 10 11 10 10
23 23 22 26 31 32 32 29 28 32 33 32 33 31 28 28 27 26 26 23 22 25 26 23 20 21 22 20 19 18 17 18 20 20 19 17 16 15 15 15 15 15 14 14 16 16 17 16 14 14 15 15 14 14 14 13 12 11 10 10 9 10 10 9 8 8 7 7 7 8 8 8 8 8 7 9 9 9 9 9 9 8 8 8 9
21 21 19 22 29 33 32 29 30 33 33 32 32 31 30 30 29 28 27 24 23 24 25 23 21 21 22 21 19 18 18 17 17 19 19 18 18 17 17 16 16 14 13 14 14 15 16 16 15 15 16 16 15 15 14 13 12 11 11 11 10 10 10 9 9 9 8 8 9 10 10 10 10 10 10 9 8 7 8 9 9 9 8 8 9
17 20 20 22 26 31 32 29 30 33 34 33 32 32 31 30 29 30 29 27 26 25 22 21 22 22 21 21 19 18 18 17 16 17 17 17 17 18 19 19 17 16 15 14 13 13 15 16 15 15 16 16 16 16 15 14 14 13 13 13 13 12 11 10 10 10 10 10 10 10 10 9 9 10 10 9 8 8 9 10 10 10 9 9 10
12 15 20 22 22 24 26 27 29 31 31 31 32 32 30 29 30 32 32 29 28 27 24 21 22 22 21 21 21 20 19 18 17 17 17 17 17 17 19 20 19 18 17 15 14 13 14 15 15 15 15 15 15 15 15 15 15 15 14 14 14 14 14 13 11 11 10 10 9 9 9 9 10 11 11 10 10 10 11 11 11 11 10 10 11
9 14 20 21 18 17 17 20 26 30 30 31 33 32 31 29 29 31 32 30 29 29 28 24 22 22 23 23 23 23 21 19 18 18 18 19 19 18 19 20 20 19 18 17 15 14 14 15 15 15 14 15 15 15 15 16 15 15 14 14 13 13 14 14 13 12 11 10 9 9 9 10 11 11 12 12 11 10 10 11 12 13 14 14 15
5 10 19 21 17 14 13 15 19 24 27 28 28 30 30 30 29 28 30 31 29 28 29 27 24 24 25 23 21 22 22 21 19 19 20 22 22 20 19 20 19 17 17 18 16 14 14 15 15 15 14 14 16 16 15 15 15 15 15 14 14 14 14 13 12 12 12 12 11 10 9 10 11 10 10 10 10 11 12 12 12 13 15 16 18
1 1 8 15 14 13 14 14 14 18 22 23 22 22 22 24 26 26 27 29 29 28 28 27 25 25 24 22 18 19 23 24 22 20 20 22 23 22 20 21 19 17 17 19 17 17 17 17 17 17 17 17 18 16 14 14 14 14 15 14 13 12 11 11 11 12 12 12 11 10 10 11 11 11 10 9 11 12 12 12 13 14 15 15 16
6 5 4 3 10 12 11 11 14 17 21 23 21 18 15 17 21 22 23 25 27 27 26 26 26 25 23 23 22 22 26 27 26 24 23 23 24 24 23 22 20 18 19 20 20 20 20 20 20 20 20 20 21 18 16 15 14 14 15 15 12 10 9 10 10 9 9 9 9 10 10 10 11 13 12 11 12 12 10 11 13 14 15 15 15
14 11 11 8 7 10 6 6 10 13 16 18 18 14 10 11 15 17 18 20 20 19 18 18 20 20 21 23 26 26 28 28 27 27 26 26 27 28 27 25 23 21 19 19 20 22 22 21 22 23 23 22 22 20 17 17 16 16 15 16 14 11 10 10 9 8 8 9 9 9 10 11 13 14 14 14 14 13 11 11 13 14 15 15 16
18 17 17 16 10 5 5 5 6 8 9 12 14 14 11 10 11 14 16 17 17 15 14 14 16 17 18 21 24 26 27 25 25 26 27 27 29 29 29 29 28 26 23 19 19 20 21 21 22 23 23 22 21 20 18 17 18 18 17 16 15 14 14 13 12 12 13 13 12 11 10 12 14 14 14 14 14 13 13 13 13 15 15 15 16
17 17 17 19 16 9 6 6 5 4 6 8 11 13 13 11 11 13 14 16 18 19 19 20 21 21 21 22 24 25 25 24 23 25 26 27 28 29 29 30 30 29 27 24 20 19 19 19 21 21 21 20 20 19 18 19 19 20 20 19 17 16 17 18 17 16 16 16 16 16 15 15 16 17 17 16 15 15 16 15 15 16 16 16 17
19 19 18 19 19 16 13 12 11 8 6 4 3 4 6 6 6 6 6 9 14 18 20 21 22 22 22 23 24 25 25 25 25 26 26 27 28 29 29 29 29 29 28 27 25 23 21 20 19 20 21 21 21 20 21 22 21 20 20 20 19 20 21 20 20 20 18 17 18 19 20 20 19 19 19 19 19 19 19 19 19 19 19 18 19
19 20 20 19 19 20 19 19 19 17 16 14 11 8 6 6 5 3 3 5 10 14 16 17 17 19 19 19 20 21 22 24 26 26 26 27 29 30 30 30 29 28 28 28 28 27 26 25 23 23 23 23 23 23 25 25 24 22 21 19 19 21 22 22 22 22 20 19 18 19 21 22 21 21 20 20 20 20 20 21 21 21 21 21 22
17 16 16 16 16 16 16 17 20 20 18 17 17 16 15 14 14 12 11 10 8 8 9 9 10 12 15 15 16 18 19 19 20 21 22 22 24 26 28 28 29 29 29 30 30 30 30 29 28 27 27 27 27 27 27 27 25 23 22 21 20 20 21 21 22 21 21 20 19 19 20 22 23 23 23 22 22 22 22 22 22 21 21 21 22
19 17 15 14 15 15 14 14 17 18 18 18 20 20 19 18 17 15 15 14 11 8 8 7 5 3 5 8 8 10 12 14 15 16 18 19 20 21 22 23 24 25 26 27 29 30 31 31 30 31 31 31 31 31 30 29 26 23 22 22 21 21 21 21 21 21 21 20 20 19 20 21 21 22 23 23 22 21 22 22 21 21 21 20 20
17 17 16 16 16 16 16 16 17 17 18 18 18 19 19 18 15 13 14 13 12 10 10 10 9 9 6 4 2 1 3 6 9 10 12 15 17 18 18 18 19 20 21 21 22 24 26 27 28 29 31 31 31 31 30 30 28 25 23 23 23 23 23 22 22 22 21 20 20 20 21 21 21 22 22 22 22 21 20 20 20 20 19 19 20
14 14 15 15 16 15 15 15 14 14 15 15 14 15 18 18 16 14 13 12 11 9 9 9 10 11 11 10 8 6 3 1 3 4 5 6 8 9 11 12 13 14 15 15 16 18 19 20 22 25 26 28 29 30 30 29 28 26 24 23 24 25 24 23 23 22 20 18 18 19 19 20 20 21 22 22 22 21 20 19 18 18 18 19 18
13 12 11 12 13 12 11 10 9 8 10 12 12 14 18 19 19 17 15 12 10 9 8 8 9 11 13 13 13 11 8 5 3 2 4 4 3 3 4 5 6 7 8 8 9 11 10 11 14 18 21 23 26 29 30 28 25 24 23 22 23 24 22 21 20 18 17 16 16 17 17 17 18 18 18 19 19 19 19 18 16 16 17 18 17
13 12 10 9 10 11 12 11 9 7 7 7 7 9 12 14 17 17 15 13 12 10 9 9 9 11 11 12 14 13 11 10 11 9 6 6 6 5 5 5 5 5 5 4 5 6 5 4 6 10 14 17 19 22 25 24 21 19 19 19 19 19 19 18 16 15 15 15 15 16 17 17 17 16 16 16 17 17 17 16 16 16 15 15 13
15 14 12 11 10 11 13 13 12 10 8 6 4 5 6 9 11 13 13 14 14 13 12 10 9 9 9 9 11 12 10 9 10 11 11 11 11 11 12 12 11 10 9 8 6 6 6 5 5 5 5 7 9 12 15 17 16 15 14 15 15 16 17 16 15 14 15 15 16 16 16 16 16 15 15 15 14 13 12 11 11 10 9 7 6
15 14 13 12 12 12 12 13 13 11 9 8 6 5 5 6 8 8 9 11 13 14 14 12 9 8 9 9 8 8 7 7 8 8 9 10 11 10 12 13 13 12 11 10 8 7 6 5 4 5 5 6 8 9 10 12 12 11 12 12 13 14 15 15 14 14 14 14 14 14 14 12 11 10 10 9 8 6 4 4 4 3 3 1 1
12 10 9 9 8 8 8 10 12 12 12 11 8 6 5 5 6 6 5 5 6 9 10 11 10 10 9 8 6 5 5 5 5 6 6 7 9 8 8 10 11 11 12 12 12 11 10 8 9 10 11 10 9 9 8 8 8 7 8 8 8 9 10 10 10 10 10 11 10 8 7 6 5 4 4 3 1 1 2 2 2 3 3 2 2
8 7 6 5 4 3 5 6 7 9 9 10 10 9 8 7 5 4 4 4 3 4 6 8 9 10 9 8 7 5 4 3 3 2 2 4 5 5 6 7 8 9 8 10 12 12 10 10 11 11 10 10 9 9 8 8 8 7 6 6 5 5 5 5 4 4 5 5 4 3 2 2 1 2 2 2 2 3 3 2 2 2 3 3 4
7 5 4 4 3 2 3 4 5 5 5 5 6 6 7 7 5 3 3 3 3 4 4 5 7 9 9 7 6 4 3 5 4 1 1 1 1 1 3 5 5 7 7 7 9 10 10 10 9 6 5 5 4 4 4 5 6 6 5 5 5 4 4 4 4 3 3 3 2 2 3 2 3 5 6 4 4 4 4 4 4 3 2 2 3
5 3 2 2 2 2 3 3 3 3 3 3 3 2 3 4 5 4 4 4 3 4 4 4 6 9 9 6 3 2 1 4 5 3 3 4 6 3 2 5 3 3 5 5 6 7 8 8 6 4 3 2 2 2 1 1 2 2 2 2 2 3 3 3 3 2 2 1 2 4 4 3 4 5 4 3 4 7 7 7 7 6 5 5 6
6 4 4 4 3 2 2 2 2 3 3 3 2 1 2 3 2 3 5 6 6 5 5 6 8 9 9 8 5 3 1 2 3 4 6 3 1 2 1 5 8 7 4 1 2 6 6 6 6 4 4 4 5 6 6 6 5 5 6 6 6 6 5 4 3 3 2 2 4 7 6 5 5 3 1 3 8 10 9 8 7 6 7 8 9
7 6 6 6 5 3 2 2 1 1 2 2 2 1 2 2 3 4 6 6 6 5 5 8 11 11 10 8 6 6 4 3 3 2 5 7 6 7 6 2 4 8 8 6 6 7 8 8 8 8 9 10 10 10 10 10 9 9 9 7 6 5 4 3 3 2 1 3 6 8 7 5 5 4 4 6 9 10 9 7 6 7 8 9 10
Wind_Direction
167 174 173 167 165 165 160 154 156 156 157 164 166 166 167 172 175 179 177 169 167 165 160 155 153 154 156 154 153 161 170 163 166 185 183 165 165 166 164 163 160 159 159 157 162 169 169 165 160 162 162 161 158 146 141 140 136 134 137 138 126 114 117 101 70 76 113 126 117 62 162 169 143 155 159 157 162 172 186 212 220 215 33 30 25
165 172 169 163 164 168 162 154 159 161 161 166 169 170 172 177 182 183 176 171 169 166 160 155 157 160 159 159 156 161 170 167 173 183 171 167 170 169 167 165 164 166 166 163 163 160 155 157 158 163 166 156 143 137 133 137 134 128 131 133 119 103 101 94 80 105 141 149 155 123 129 149 168 176 169 164 165 163 165 200 218 216 17 37 22
165 170 167 164 165 168 163 160 167 166 164 167 171 175 177 180 186 185 174 171 169 164 160 156 160 164 161 161 162 165 165 164 180 179 162 167 169 167 170 167 167 170 169 169 167 160 155 158 156 163 169 155 140 141 137 135 132 124 125 128 123 112 102 93 89 91 135 166 183 203 196 210 210 239 248 208 209 199 164 180 208 209 270 53 30
165 169 168 164 166 168 165 167 172 170 170 172 175 179 180 181 187 185 173 171 169 161 161 161 164 168 167 166 165 166 163 162 183 192 173 171 171 169 172 170 172 173 171 172 168 164 162 160 152 154 161 151 142 144 140 133 128 122 124 129 123 117 115 103 88 51 20 182 180 189 217 240 249 298 280 224 244 228 186 194 205 205 223 58 45
166 170 169 165 167 168 168 172 174 173 175 179 181 183 182 182 186 183 172 171 167 160 166 170 169 172 173 170 165 165 168 169 184 199 189 178 176 172 171 174 174 173 176 177 173 171 168 160 150 151 156 150 141 139 137 129 127 127 127 134 126 112 117 105 92 79 57 187 152 125 201 228 274 344 336 191 90 117 178 206 206 200 229 277 298
169 174 172 167 169 169 169 176 176 173 176 182 187 186 184 184 186 181 172 171 165 163 175 178 172 174 172 172 169 168 174 177 186 198 194 181 177 173 171 174 174 174 179 182 178 175 173 165 157 155 155 152 148 146 144 135 134 138 134 137 138 132 131 117 109 117 124 126 110 87 92 77 26 352 350 6 81 91 130 187 187 189 242 273 307
172 180 177 172 174 171 170 177 178 175 176 181 187 187 185 185 185 179 172 173 171 172 182 182 177 175 171 173 176 172 175 179 185 193 190 177 174 173 171 174 175 172 179 189 181 172 175 174 169 164 157 160 160 155 153 145 142 143 140 142 153 156 150 135 126 129 123 114 118 140 112 74 37 10 2 11 55 129 99 92 137 173 227 230 223
178 184 182 177 178 175 173 179 181 178 177 180 185 189 189 187 185 179 175 179 181 181 183 183 182 178 173 177 179 175 176 176 181 187 180 173 179 177 176 180 177 168 179 194 181 172 183 180 175 170 164 168 165 155 149 148 151 145 138 146 161 176 170 149 139 137 125 115 149 186 180 131 103 34 331 344 5 12 28 32 76 139 177 176 168
182 187 186 182 181 179 177 180 182 182 180 181 187 192 192 192 188 181 180 184 187 185 183 183 185 181 178 181 181 179 180 176 179 183 174 178 192 187 180 182 175 170 190 198 182 179 187 184 179 172 174 175 163 160 153 146 165 158 138 140 156 185 186 169 160 136 114 117 154 182 192 174 166 22 327 296 345 1 359 3 36 141 147 103 116
184 188 190 186 185 183 180 181 184 184 183 183 190 194 193 195 190 183 185 187 187 185 182 183 185 183 182 184 183 181 182 180 181 182 176 182 195 189 181 180 174 179 199 202 190 187 188 190 186 176 186 189 175 178 173 159 182 178 156 148 158 184 186 183 181 152 135 139 151 179 188 194 209 354 355 7 14 2 5 359 354 352 181 122 76
183 187 192 187 185 184 180 183 186 185 183 184 191 195 194 197 192 186 187 187 185 183 183 184 183 185 186 187 189 185 182 182 183 183 180 185 193 188 181 181 178 186 202 206 201 196 191 193 191 181 191 200 195 191 183 177 192 185 170 165 166 181 184 191 196 187 178 164 148 161 175 239 309 326 323 355 347 332 3 360 348 3 326 273 274
184 187 192 188 184 183 181 184 187 186 183 184 191 194 195 198 195 189 189 187 185 185 184 183 182 185 186 186 188 188 185 184 183 183 182 186 192 188 184 184 184 192 203 203 200 198 193 194 196 191 192 199 201 202 205 211 206 193 181 179 186 189 187 194 199 207 216 192 161 167 209 263 292 307 281 255 285 272 299 338 303 274 314 308 315
186 188 190 190 187 185 183 184 188 187 181 182 191 192 193 199 197 192 191 188 187 188 187 184 182 183 184 182 183 185 187 187 184 183 182 184 188 188 187 186 188 197 203 198 195 199 195 195 204 203 202 205 204 208 217 223 219 213 203 196 208 209 198 199 198 208 218 201 179 200 259 264 276 292 275 258 275 265 265 300 292 275 278 289 304
187 189 191 193 191 188 186 186 190 189 182 182 188 191 194 198 196 192 191 188 187 189 188 185 183 183 183 185 185 185 187 187 185 185 185 186 189 191 191 191 194 198 202 195 190 199 200 199 208 212 218 220 211 214 218 219 225 226 220 215 221 222 214 214 208 205 211 207 198 201 227 262 274 278 269 255 260 262 269 283 286 278 270 274 280
189 189 193 195 193 192 190 189 191 190 186 186 190 193 196 198 196 193 190 188 188 189 189 187 184 185 186 186 188 187 185 185 188 190 190 191 195 195 193 197 201 199 201 195 190 202 210 206 209 215 224 226 219 218 217 217 224 227 227 225 231 238 234 232 221 211 217 216 204 204 230 263 267 265 269 270 272 276 275 280 289 290 282 281 280
195 188 194 197 195 193 191 190 191 190 188 190 193 195 198 200 199 195 191 189 188 188 190 189 186 188 189 186 187 189 187 186 189 191 192 193 197 199 196 200 202 201 203 202 200 211 217 211 212 215 221 226 224 219 216 218 222 225 228 229 234 243 243 241 229 222 230 225 210 209 222 242 247 257 282 290 283 282 285 288 294 296 292 291 293
200 190 195 199 197 195 194 195 193 190 189 191 195 198 200 202 200 198 193 191 191 190 190 191 189 190 192 189 188 190 191 190 186 187 189 192 196 198 199 201 202 204 206 207 210 216 216 214 215 215 216 220 223 223 223 224 224 226 231 231 234 243 244 240 235 234 238 230 220 219 223 226 219 235 272 288 281 278 290 291 279 280 290 294 297
202 197 198 199 197 195 196 197 194 190 189 190 194 197 199 202 202 201 197 192 192 192 191 192 192 194 195 194 192 192 195 193 187 187 188 191 194 194 197 202 202 203 207 210 214 217 217 216 216 218 218 219 221 224 228 229 228 231 236 232 235 245 247 242 243 245 237 229 226 225 229 230 218 221 249 267 272 275 285 286 275 276 286 290 293
204 205 203 199 198 196 194 194 191 188 188 191 195 196 197 200 201 202 200 196 194 193 192 194 195 196 197 198 197 196 196 193 191 193 192 192 197 199 202 207 203 202 208 213 215 218 221 219 219 226 228 223 222 225 228 230 229 232 238 238 237 247 253 248 249 246 232 225 223 223 229 235 231 231 237 245 251 260 277 284 282 283 288 293 298
204 206 205 200 195 194 192 191 190 187 187 192 196 196 195 197 199 201 201 198 196 195 195 195 196 199 199 199 200 200 198 193 192 198 197 194 201 209 211 211 208 207 212 216 215 217 223 222 223 230 233 229 229 231 232 234 235 234 237 241 239 243 247 243 243 242 233 226 221 225 242 248 247 246 243 246 249 249 267 289 293 290 289 293 297
203 204 206 203 193 190 191 192 190 186 188 194 195 193 193 194 197 202 201 198 196 196 197 198 197 199 200 200 199 200 201 195 190 200 206 202 208 215 216 213 212 212 214 218 217 215 221 223 221 224 229 232 233 235 234 235 237 235 236 243 242 242 245 240 235 237 236 230 221 228 253 261 262 261 258 259 258 249 256 292 297 289 287 290 292
204 206 208 205 193 186 187 190 189 185 189 194 192 189 190 191 196 201 201 198 196 194 198 201 198 197 201 203 200 200 203 197 190 199 210 212 214 218 217 213 213 214 214 216 217 219 222 222 220 219 221 228 231 231 232 232 232 230 233 242 243 245 252 251 244 242 239 238 234 239 256 268 272 266 263 274 268 244 252 283 286 283 287 289 287
196 202 207 203 191 181 181 184 186 186 190 192 188 186 189 192 196 199 199 199 195 192 196 201 199 197 199 204 204 201 203 200 196 200 210 211 210 212 212 209 215 223 223 220 220 223 224 222 221 220 218 222 225 226 230 232 231 229 231 236 242 250 255 250 248 252 252 250 250 251 257 268 275 264 267 303 295 253 249 263 266 272 282 285 286
197 203 207 202 196 188 182 183 187 189 190 190 186 186 191 195 196 196 197 200 195 190 196 202 201 197 197 203 208 207 205 203 200 202 208 210 208 210 211 209 218 231 232 226 224 226 228 226 222 221 223 225 224 224 228 232 235 237 236 237 244 255 260 253 250 258 259 252 253 259 265 276 287 277 263 274 275 261 253 257 267 276 282 286 293
203 207 208 202 198 195 187 187 193 193 190 188 187 188 192 194 194 193 196 199 193 191 199 206 203 197 196 202 207 207 206 206 202 201 205 209 211 217 222 219 221 230 233 229 225 227 232 231 225 224 229 232 232 229 229 232 236 240 243 246 247 252 260 263 259 260 261 259 263 269 271 276 282 279 265 257 262 268 265 266 275 281 283 288 292
190 194 200 198 197 196 190 187 192 193 190 187 188 190 191 192 192 191 195 196 191 193 203 209 205 198 196 201 205 204 206 208 205 204 206 208 210 217 228 232 231 233 235 235 231 228 232 234 231 231 233 234 236 235 234 234 236 239 244 249 250 251 257 261 259 258 260 264 269 271 270 268 266 269 270 265 264 272 277 278 281 282 284 289 293
189 194 199 195 194 197 195 192 192 193 192 191 192 194 194 194 194 192 193 193 191 193 200 203 202 198 197 200 202 203 207 212 211 207 208 211 212 215 225 234 239 239 237 241 244 238 236 237 233 233 236 235 234 235 235 234 234 237 240 243 246 250 255 258 257 257 260 263 266 268 269 271 270 273 280 279 269 265 270 277 283 285 282 281 285
187 187 188 187 189 194 195 195 194 192 191 191 192 194 195 196 195 194 193 193 193 194 195 194 196 200 201 201 201 201 205 211 214 212 211 213 216 219 223 231 238 242 241 244 247 245 245 244 236 234 238 239 238 239 237 235 236 238 240 242 244 247 251 257 259 259 260 263 263 261 263 271 274 275 281 281 273 266 265 266 271 279 282 280 280
191 189 185 183 185 189 188 186 189 191 194 196 196 196 196 195 197 197 196 195 195 196 198 196 196 201 203 202 203 204 205 205 209 213 213 214 216 218 221 226 232 238 244 246 247 249 252 251 245 241 238 237 240 243 240 239 241 242 241 240 240 241 245 251 258 260 260 260 260 258 261 267 267 266 269 272 272 273 276 277 277 283 289 291 289
209 198 191 187 180 174 173 171 173 178 184 190 192 195 197 198 199 199 198 197 196 198 201 201 200 203 205 204 202 203 206 205 206 211 215 215 217 217 219 223 223 227 234 237 240 246 248 247 246 244 239 237 241 245 243 241 243 246 245 242 239 240 243 250 258 263 263 261 260 259 263 267 269 273 278 280 283 285 286 289 288 286 288 291 292
344 140 189 198 189 166 162 168 166 161 166 173 179 183 188 193 195 195 197 199 200 202 204 206 208 213 217 220 215 207 207 208 208 213 217 218 219 221 223 226 223 220 221 224 229 237 239 239 238 237 238 238 241 246 247 242 240 243 246 246 243 243 246 252 259 264 268 268 269 272 272 269 273 280 280 276 278 280 280 281 283 285 288 291 293
45 60 81 184 201 187 177 182 178 166 167 176 183 184 183 187 189 190 195 200 204 207 208 210 214 217 221 226 227 220 215 214 213 214 220 222 222 223 224 226 225 222 220 223 227 232 234 235 234 233 234 238 243 245 243 239 235 235 240 242 241 242 250 255 257 266 280 286 288 289 280 271 273 275 271 263 264 267 265 264 269 280 290 294 298
74 73 69 82 177 197 193 185 179 170 171 181 190 197 205 202 195 196 202 205 207 210 211 212 214 215 216 220 224 224 222 222 219 218 221 225 226 226 226 225 224 223 222 225 228 230 232 233 232 230 230 236 243 243 237 234 234 234 235 235 234 237 248 256 254 259 271 281 287 286 274 267 270 271 268 266 265 264 263 260 263 275 288 296 301
78 73 68 71 89 126 115 116 157 184 195 199 205 218 235 230 211 211 214 214 217 223 229 231 227 220 215 216 222 225 226 228 227 224 225 227 229 230 229 228 227 226 225 226 228 230 233 235 234 231 231 235 240 239 233 231 233 233 231 228 228 229 238 245 245 245 251 256 262 268 265 262 266 271 274 274 271 269 270 269 268 272 279 287 292
66 68 69 66 67 79 91 87 101 174 207 209 209 220 230 226 213 213 213 210 215 223 230 234 235 232 226 222 225 228 230 230 229 228 228 230 232 233 233 232 231 230 229 229 229 230 233 236 237 236 238 241 242 239 234 232 235 237 234 230 229 228 230 236 238 240 247 251 252 256 258 260 264 271 275 276 274 274 273 271 270 271 275 278 281
60 63 66 63 64 72 80 80 79 89 100 103 140 198 215 212 207 216 209 194 201 210 216 220 225 229 229 228 230 233 234 235 234 234 233 234 235 235 234 233 232 233 234 234 234 235 235 235 236 235 236 240 242 240 238 236 238 239 233 229 233 233 231 233 235 238 247 255 256 253 253 257 263 266 269 273 276 278 278 274 272 272 273 273 273
67 70 72 70 68 68 71 74 75 76 78 74 73 81 94 103 107 101 105 145 182 199 207 212 216 218 219 223 226 230 234 237 239 240 240 239 240 240 239 237 236 236 237 236 235 236 236 236 237 238 238 239 241 243 243 243 242 240 235 232 235 234 230 230 233 239 249 260 266 260 253 254 259 262 267 271 273 276 278 278 275 273 272 270 269
83 85 85 86 84 77 75 77 73 72 74 75 75 75 78 85 93 97 103 118 149 182 195 206 216 217 218 220 222 225 229 232 236 241 242 242 243 244 244 245 245 244 243 241 240 240 240 241 242 245 246 245 245 246 247 246 244 239 236 235 234 232 229 228 233 243 254 265 272 269 260 256 257 261 265 269 272 276 279 279 278 275 272 270 271
96 98 97 98 98 96 97 95 86 83 85 86 84 78 74 79 87 94 103 112 117 119 124 133 134 151 207 220 221 223 226 229 235 240 241 242 244 245 245 245 245 246 247 247 247 248 249 249 249 248 249 247 246 246 245 244 242 236 232 230 229 229 232 234 239 249 258 266 271 273 269 264 262 263 265 269 274 278 281 282 280 275 273 275 279
105 105 105 109 112 108 99 91 88 92 98 99 96 87 79 77 82 91 100 107 108 105 105 113 109 96 93 105 106 115 215 225 234 238 239 242 244 245 244 242 241 244 246 245 245 246 248 250 250 248 247 246 244 243 243 242 237 230 227 228 228 229 234 242 249 255 261 267 271 272 271 268 266 266 267 271 276 278 280 282 280 278 279 284 286
120 119 118 116 115 112 102 91 86 92 96 95 95 92 85 79 77 82 89 97 103 105 104 108 112 104 95 88 77 59 50 165 212 221 225 233 236 233 236 237 236 239 243 240 239 242 244 248 249 249 248 246 244 243 242 239 232 224 222 227 230 230 233 242 251 256 261 267 271 272 271 267 266 268 270 273 276 277 277 279 281 283 285 287 288
128 130 128 117 106 102 100 94 90 96 98 95 93 93 90 86 80 75 75 86 101 110 108 103 105 103 98 90 78 59 41 44 71 129 179 189 196 202 215 219 214 219 229 234 240 246 249 252 250 246 243 242 242 242 240 234 224 219 220 225 228 228 232 239 247 252 256 263 270 272 271 269 269 271 273 275 276 277 277 278 280 280 282 283 286
127 130 130 120 107 98 93 91 90 96 105 106 98 92 90 89 88 85 81 83 90 99 105 107 109 106 98 91 83 71 58 56 60 65 94 125 125 122 127 132 132 136 147 162 193 214 218 225 227 226 229 230 226 225 227 223 212 208 212 216 221 226 232 238 242 245 248 255 263 266 267 269 271 273 276 279 279 280 280 280 280 279 280 282 285
117 119 121 118 110 102 97 97 98 100 107 111 106 101 96 88 89 95 94 88 84 83 84 88 103 111 104 95 90 84 75 70 70 73 83 93 96 101 108 112 108 106 110 120 146 180 193 201 195 190 209 212 187 177 189 195 194 195 203 210 217 225 232 237 240 244 247 252 257 261 264 268 271 272 276 280 282 285 284 281 278 275 272 274 278
114 112 110 106 101 96 91 89 87 85 89 95 99 111 114 104 102 106 103 93 89 88 83 77 79 92 97 98 103 99 83 73 78 87 92 92 91 94 104 111 111 108 107 105 104 113 125 135 137 125 124 151 159 154 163 179 186 196 207 216 225 230 235 241 244 249 255 259 262 264 268 273 275 276 279 283 290 293 280 256 243 219 194 197 258
117 111 105 101 99 94 90 85 80 75 73 74 78 80 79 94 111 116 108 98 98 98 94 87 81 80 79 76 85 100 93 77 80 91 94 93 94 95 99 105 108 110 113 115 113 107 100 99 109 113 110 117 132 136 137 149 163 178 196 211 225 234 241 245 247 252 259 260 261 268 274 278 284 286 280 278 283 192 167 159 146 156 168 177 219
127 116 107 106 104 99 99 92 87 86 82 76 76 71 63 67 81 90 96 108 119 114 108 103 99 96 87 68 56 61 72 80 98 109 98 96 99 105 112 106 94 91 104 122 128 126 121 121 127 128 118 110 114 119 117 121 134 147 160 168 180 203 218 220 219 223 231 234 240 249 236 204 133 88 95 110 116 125 135 118 103 154 209 239 256
150 134 114 108 98 85 90 92 96 105 110 107 97 82 74 76 83 98 114 115 108 109 124 136 131 129 123 99 64 40 65 90 97 65 322 226 171 122 143 136 97 76 85 110 124 133 141 143 141 141 134 120 113 117 118 122 133 141 144 150 159 174 190 195 197 195 194 200 196 182 175 158 124 109 103 107 123 128 137 151 160 178 213 250 266
175 168 161 148 117 78 64 67 76 87 100 119 131 125 113 105 104 122 145 162 155 123 126 145 143 143 149 139 91 18 43 98 101 54 354 259 255 269 185 175 166 100 93 107 128 142 151 154 157 162 167 176 232 253 229 190 178 189 207 218 241 269 262 250 256 254 244 241 186 174 170 152 138 132 119 131 156 153 157 172 181 189 205 225 245
201 201 204 195 174 140 105 75 51 44 49 52 53 132 180 168 143 135 143 157 163 144 132 145 148 152 166 173 163 151 120 107 114 69 53 65 286 332 78 187 205 198 177 178 198 180 171 174 183 196 221 247 262 266 264 269 276 281 284 287 290 294 293 289 289 279 257 219 182 178 169 141 128 130 119 158 164 167 175 185 197 210 223 239 260
217 224 224 219 218 213 182 144 107 73 65 54 45 73 181 182 170 160 151 156 168 160 137 144 155 165 176 179 175 175 167 140 137 93 62 67 52 27 33 64 200 206 215 255 265 237 224 224 226 238 255 261 263 264 262 264 271 279 285 290 293 298 302 302 300 285 218 184 181 178 166 138 118 124 146 159 167 177 185 193 216 238 248 264 280
Height
1548 1551 1552 1553 1556 1558 1558 1559 1561 1562 1564 1566 1567 1568 1569 1570 1571 1572 1573 1574 1575 1576 1578 1579 1580 1582 1583 1585 1586 1588 1588 1589 1590 1590 1591 1592 1593 1594 1595 1596 1597 1598 1598 1599 1599 1600 1600 1601 1602 1602 1603 1604 1604 1604 1605 1605 1606 1606 1606 1607 1607 1607 1607 1607 1607 1608 1609 1610 1610 1611 1611 1611 1611 1611 1611 1611 1611 1611 1611 1611 1611 1612 1613 1612 1612
1547 1550 1551 1552 1555 1557 1558 1559 1560 1562 1564 1566 1567 1568 1569 1570 1571 1572 1573 1575 1576 1577 1578 1579 1581 1582 1583 1584 1586 1588 1588 1589 1590 1590 1591 1592 1593 1594 1595 1596 1597 1598 1598 1599 1599 1600 1601 1601 1602 1603 1603 1604 1604 1604 1605 1606 1606 1606 1606 1607 1607 1607 1607 1607 1607 1609 1609 1610 1610 1611 1611 1611 1611 1611 1611 1611 1611 1612 1612 1612 1612 1613 1613 1612 1612
1545 1548 1550 1551 1554 1556 1558 1559 1559 1562 1564 1565 1566 1568 1569 1570 1571 1572 1574 1575 1576 1577 1579 1580 1582 1583 1584 1585 1586 1588 1588 1589 1590 1590 1591 1592 1592 1594 1595 1596 1597 1598 1598 1599 1599 1600 1601 1601 1602 1603 1603 1604 1604 1604 1605 1606 1606 1606 1606 1607 1607 1607 1607 1607 1608 1609 1610 1610 1611 1611 1611 1611 1611 1611 1611 1611 1611 1611 1611 1612 1612 1612 1613 1612 1612
1544 1547 1549 1550 1552 1555 1557 1558 1559 1561 1563 1565 1566 1567 1569 1570 1571 1572 1574 1575 1576 1578 1579 1580 1582 1583 1584 1586 1586 1588 1589 1590 1590 1590 1591 1592 1592 1593 1594 1596 1597 1597 1598 1599 1599 1600 1601 1601 1602 1602 1603 1604 1604 1605 1605 1606 1606 1606 1606 1607 1607 1607 1607 1607 1608 1609 1610 1611 1611 1611 1611 1611 1611 1611 1611 1610 1611 1611 1611 1612 1611 1612 1612 1612 1612
1542 1545 1547 1549 1551 1553 1556 1558 1558 1560 1562 1564 1565 1566 1568 1569 1570 1572 1573 1575 1576 1578 1579 1580 1582 1583 1584 1585 1586 1587 1589 1589 1590 1590 1591 1592 1592 1593 1594 1595 1596 1597 1598 1598 1599 1600 1601 1601 1602 1602 1603 1604 1604 1605 1605 1606 1606 1606 1606 1607 1607 1608 1607 1608 1608 1609 1610 1611 1612 1612 1612 1612 1611 1611 1610 1610 1611 1611 1611 1612 1612 1612 1612 1612 1612
1542 1544 1546 1547 1549 1552 1554 1556 1557 1559 1560 1563 1564 1566 1567 1568 1570 1571 1573 1575 1576 1578 1579 1580 1581 1582 1583 1584 1585 1586 1587 1589 1589 1589 1590 1591 1592 1593 1594 1595 1596 1597 1597 1598 1599 1600 1601 1601 1602 1603 1603 1604 1604 1605 1605 1606 1606 1606 1607 1607 1608 1608 1608 1608 1609 1609 1610 1611 1612 1612 1612 1612 1612 1611 1611 1610 1611 1611 1612 1613 1612 1612 1612 1612 1612
1541 1543 1545 1546 1548 1550 1553 1555 1556 1557 1559 1562 1563 1565 1566 1568 1569 1571 1573 1574 1576 1577 1578 1579 1580 1582 1583 1584 1585 1586 1586 1588 1589 1590 1590 1591 1592 1593 1593 1594 1595 1597 1597 1598 1599 1600 1600 1601 1602 1603 1603 1604 1604 1605 1605 1605 1606 1606 1607 1608 1608 1608 1609 1609 1609 1610 1610 1611 1611 1612 1612 1612 1612 1612 1611 1611 1611 1612 1612 1612 1612 1612 1612 1611 1611
1539 1542 1543 1545 1546 1548 1551 1554 1555 1556 1559 1561 1562 1563 1565 1567 1569 1570 1572 1574 1575 1576 1577 1579 1580 1581 1583 1584 1585 1586 1587 1588 1589 1590 1590 1591 1592 1593 1594 1594 1595 1596 1597 1597 1598 1599 1600 1601 1602 1602 1603 1604 1604 1605 1605 1606 1606 1607 1607 1608 1608 1608 1609 1610 1610 1610 1610 1610 1611 1611 1611 1611 1612 1611 1612 1612 1612 1612 1612 1612 1612 1612 1612 1612 1612
1537 1540 1542 1543 1545 1547 1550 1553 1554 1555 1558 1560 1561 1562 1564 1566 1568 1569 1571 1573 1574 1575 1577 1578 1580 1581 1583 1584 1585 1586 1587 1588 1589 1589 1591 1591 1592 1593 1594 1594 1595 1596 1597 1597 1598 1599 1600 1601 1602 1602 1603 1603 1604 1605 1605 1606 1606 1607 1607 1607 1608 1609 1609 1610 1610 1610 1610 1610 1610 1611 1611 1612 1612 1612 1612 1612 1612 1612 1612 1612 1612 1612 1612 1612 1612
1535 1538 1540 1542 1543 1545 1549 1551 1554 1555 1557 1559 1560 1561 1563 1565 1567 1568 1570 1571 1573 1575 1576 1578 1579 1581 1582 1583 1584 1585 1586 1588 1588 1589 1591 1591 1592 1592 1593 1594 1595 1595 1596 1597 1598 1599 1600 1600 1601 1602 1603 1603 1604 1605 1605 1606 1606 1607 1607 1607 1608 1609 1609 1610 1610 1610 1610 1610 1610 1611 1611 1612 1612 1612 1612 1612 1612 1612 1612 1612 1612 1612 1612 1611 1611
1533 1536 1538 1541 1542 1544 1547 1550 1552 1554 1555 1557 1558 1559 1562 1563 1565 1567 1569 1570 1572 1574 1575 1577 1578 1580 1581 1583 1584 1585 1586 1587 1588 1589 1590 1591 1591 1592 1593 1594 1594 1595 1596 1597 1598 1598 1599 1600 1601 1602 1602 1603 1604 1604 1605 1606 1606 1607 1607 1607 1608 1609 1609 1610 1610 1610 1611 1610 1611 1611 1611 1612 1612 1612 1612 1612 1612 1612 1612 1611 1611 1611 1611 1611 1611
1531 1534 1536 1539 1541 1542 1545 1548 1550 1552 1553 1555 1556 1557 1560 1562 1564 1566 1567 1569 1571 1572 1574 1576 1578 1579 1580 1582 1583 1584 1585 1586 1587 1588 1589 1590 1591 1592 1593 1593 1594 1595 1596 1596 1597 1598 1599 1600 1600 1601 1602 1603 1603 1604 1605 1605 1606 1606 1607 1607 1608 1609 1609 1609 1610 1610 1610 1610 1611 1611 1612 1612 1612 1612 1612 1612 1612 1612 1612 1611 1611 1611 1611 1611 1611
1528 1531 1534 1536 1539 1541 1543 1546 1548 1550 1551 1553 1553 1555 1558 1560 1562 1564 1565 1568 1569 1571 1573 1575 1576 1578 1579 1581 1582 1584 1584 1586 1587 1588 1589 1590 1591 1592 1592 1593 1594 1594 1595 1596 1597 1598 1598 1599 1600 1601 1601 1602 1603 1604 1604 1605 1605 1606 1606 1607 1608 1608 1609 1609 1609 1610 1610 1611 1611 1611 1612 1612 1612 1612 1611 1611 1612 1612 1612 1611 1611 1611 1611 1611 1610
1526 1528 1531 1534 1536 1539 1541 1543 1546 1548 1550 1552 1552 1553 1556 1558 1560 1562 1564 1566 1568 1570 1572 1574 1575 1577 1579 1580 1581 1583 1584 1585 1586 1588 1589 1590 1591 1592 1592 1593 1594 1594 1595 1596 1597 1597 1598 1599 1599 1600 1601 1602 1602 1603 1604 1604 1605 1605 1606 1607 1607 1608 1608 1608 1609 1609 1610 1610 1610 1611 1611 1612 1612 1611 1611 1611 1611 1611 1611 1611 1611 1611 1610 1610 1610
1524 1526 1529 1531 1533 1536 1539 1542 1544 1546 1548 1550 1551 1552 1554 1556 1559 1561 1563 1564 1566 1568 1570 1572 1574 1576 1577 1579 1580 1582 1583 1584 1586 1587 1588 1589 1590 1591 1592 1593 1593 1594 1594 1595 1596 1597 1598 1598 1599 1600 1601 1601 1602 1603 1603 1604 1604 1605 1605 1606 1607 1607 1607 1608 1608 1609 1609 1610 1610 1611 1611 1611 1611 1611 1611 1611 1611 1611 1611 1611 1611 1610 1610 1610 1609
1522 1524 1526 1529 1531 1534 1536 1539 1542 1544 1546 1548 1549 1551 1552 1554 1557 1559 1561 1563 1565 1567 1569 1571 1573 1575 1576 1578 1579 1581 1582 1583 1585 1586 1587 1589 1590 1591 1592 1592 1593 1594 1594 1595 1596 1596 1597 1598 1598 1599 1600 1601 1601 1602 1602 1603 1604 1604 1605 1606 1606 1606 1607 1607 1608 1608 1609 1609 1609 1610 1610 1611 1611 1611 1611 1611 1610 1610 1610 1611 1610 1609 1609 1609 1608
1519 1521 1524 1527 1529 1531 1534 1537 1539 1542 1544 1545 1547 1549 1551 1553 1555 1558 1560 1562 1564 1565 1567 1569 1571 1573 1575 1576 1578 1579 1581 1582 1584 1585 1586 1588 1589 1590 1591 1592 1592 1593 1594 1594 1595 1596 1597 1597 1598 1599 1599 1600 1601 1601 1602 1602 1603 1603 1604 1605 1605 1605 1606 1606 1607 1607 1608 1608 1609 1609 1609 1610 1610 1610 1610 1610 1610 1610 1610 1610 1609 1609 1609 1608 1608
1518 1519 1522 1524 1526 1529 1531 1534 1537 1539 1542 1543 1545 1547 1549 1551 1553 1556 1558 1560 1562 1564 1566 1568 1569 1571 1573 1575 1577 1578 1580 1581 1583 1584 1585 1586 1588 1589 1590 1590 1591 1592 1593 1594 1595 1595 1596 1597 1597 1598 1598 1599 1600 1600 1601 1601 1602 1603 1603 1603 1604 1604 1605 1605 1606 1607 1607 1608 1608 1608 1608 1609 1609 1609 1610 1610 1610 1610 1610 1609 1609 1609 1609 1609 1608
1516 1517 1520 1522 1524 1526 1528 1531 1534 1537 1540 1542 1543 1546 1548 1550 1552 1554 1556 1558 1561 1563 1564 1566 1568 1570 1572 1573 1575 1577 1579 1580 1582 1583 1584 1585 1586 1587 1588 1589 1590 1592 1592 1593 1594 1594 1595 1596 1596 1597 1597 1598 1599 1599 1600 1601 1601 1602 1602 1603 1603 1603 1604 1604 1605 1605 1606 1607 1607 1608 1608 1608 1608 1608 1609 1609 1609 1609 1609 1609 1609 1609 1609 1608 1608
1514 1516 1518 1520 1522 1524 1526 1530 1532 1535 1539 1540 1542 1544 1546 1549 1551 1552 1555 1557 1559 1561 1563 1565 1566 1568 1570 1572 1574 1576 1577 1579 1580 1582 1583 1584 1585 1586 1587 1588 1589 1590 1591 1592 1593 1593 1594 1595 1595 1596 1596 1597 1598 1598 1599 1600 1600 1601 1601 1602 1602 1603 1603 1603 1604 1604 1605 1605 1606 1606 1607 1607 1607 1608 1608 1608 1608 1608 1609 1609 1609 1608 1608 1608 1607
1512 1514 1517 1519 1521 1523 1525 1528 1530 1534 1538 1539 1540 1542 1544 1547 1549 1551 1553 1555 1557 1559 1561 1563 1565 1567 1568 1570 1572 1574 1576 1578 1579 1581 1582 1583 1584 1584 1585 1587 1587 1589 1590 1590 1591 1592 1593 1594 1595 1595 1596 1596 1597 1597 1598 1599 1599 1600 1601 1601 1602 1602 1602 1603 1603 1604 1604 1604 1605 1605 1606 1606 1606 1607 1607 1607 1607 1608 1608 1608 1608 1608 1607 1607 1607
1511 1514 1517 1519 1521 1522 1524 1527 1529 1532 1536 1537 1538 1540 1542 1545 1547 1550 1552 1553 1555 1557 1559 1562 1563 1565 1567 1569 1571 1573 1574 1576 1578 1579 1580 1581 1582 1583 1584 1585 1586 1587 1588 1589 1590 1591 1592 1593 1593 1594 1595 1595 1596 1596 1597 1598 1598 1599 1600 1601 1601 1601 1602 1602 1602 1603 1603 1603 1604 1604 1604 1605 1605 1606 1606 1606 1607 1607 1607 1607 1607 1607 1606 1606 1606
1511 1513 1514 1517 1521 1522 1523 1526 1528 1530 1533 1536 1537 1539 1541 1543 1546 1548 1550 1552 1554 1556 1558 1560 1562 1564 1565 1567 1569 1571 1573 1575 1576 1577 1579 1580 1581 1582 1583 1584 1584 1585 1586 1588 1589 1589 1590 1591 1592 1593 1593 1594 1595 1595 1596 1597 1597 1598 1599 1600 1600 1600 1601 1602 1602 1602 1602 1603 1603 1603 1604 1604 1604 1605 1605 1605 1606 1606 1606 1606 1606 1605 1605 1605 1605
1511 1512 1512 1516 1520 1521 1522 1526 1529 1530 1531 1533 1535 1537 1540 1542 1544 1546 1548 1551 1553 1555 1557 1559 1561 1563 1564 1566 1568 1569 1571 1573 1574 1576 1577 1578 1580 1580 1581 1582 1583 1584 1585 1586 1587 1588 1589 1590 1590 1591 1592 1592 1593 1594 1595 1596 1596 1597 1598 1599 1599 1600 1600 1601 1601 1601 1601 1602 1602 1603 1603 1603 1604 1604 1604 1605 1605 1605 1605 1605 1605 1605 1604 1604 1603
1511 1512 1513 1515 1519 1520 1521 1524 1527 1528 1529 1531 1533 1536 1538 1540 1542 1545 1547 1550 1552 1554 1555 1557 1559 1561 1563 1565 1567 1568 1570 1572 1573 1575 1576 1577 1578 1579 1580 1581 1582 1583 1583 1584 1585 1586 1587 1588 1589 1590 1590 1591 1592 1593 1594 1594 1595 1596 1597 1597 1598 1599 1599 1600 1600 1600 1601 1601 1601 1602 1602 1603 1603 1604 1604 1604 1604 1604 1604 1604 1604 1604 1604 1603 1603
1510 1511 1514 1516 1519 1521 1521 1522 1525 1525 1527 1529 1532 1534 1537 1539 1541 1543 1545 1548 1551 1553 1554 1556 1558 1560 1562 1564 1566 1568 1569 1571 1572 1574 1575 1577 1578 1578 1578 1579 1580 1581 1582 1583 1584 1584 1585 1586 1587 1588 1589 1590 1591 1592 1592 1593 1594 1595 1595 1596 1597 1597 1598 1598 1599 1599 1600 1600 1600 1601 1601 1602 1602 1603 1603 1603 1604 1604 1604 1604 1604 1604 1603 1603 1603
1510 1510 1513 1515 1517 1520 1521 1522 1523 1524 1526 1528 1530 1533 1535 1537 1539 1541 1544 1547 1549 1552 1554 1556 1558 1560 1562 1564 1565 1567 1569 1571 1572 1573 1575 1576 1577 1578 1578 1577 1578 1580 1580 1581 1582 1583 1584 1585 1586 1587 1587 1589 1589 1590 1591 1592 1593 1594 1594 1595 1595 1596 1596 1597 1597 1598 1598 1599 1599 1600 1600 1601 1601 1601 1602 1602 1602 1602 1603 1603 1603 1603 1602 1602 1602
1510 1511 1513 1515 1517 1519 1520 1521 1522 1523 1525 1526 1528 1531 1533 1535 1538 1540 1542 1545 1548 1550 1553 1555 1558 1560 1563 1565 1566 1568 1569 1570 1572 1573 1574 1575 1576 1577 1577 1577 1577 1578 1579 1580 1581 1582 1583 1583 1585 1585 1586 1587 1588 1589 1590 1591 1592 1592 1593 1594 1594 1595 1595 1596 1596 1597 1597 1598 1598 1598 1599 1599 1600 1600 1600 1600 1601 1601 1601 1601 1601 1601 1601 1601 1601
1509 1510 1512 1514 1517 1519 1521 1521 1521 1522 1523 1525 1527 1529 1530 1533 1536 1538 1540 1543 1546 1549 1551 1554 1556 1559 1561 1563 1565 1567 1568 1569 1570 1571 1573 1574 1575 1575 1575 1575 1576 1576 1577 1578 1579 1580 1581 1581 1583 1584 1585 1586 1587 1588 1589 1590 1591 1592 1592 1592 1592 1593 1594 1594 1595 1596 1596 1597 1597 1597 1597 1598 1598 1598 1599 1599 1599 1599 1599 1599 1600 1600 1599 1599 1599
1510 1509 1510 1512 1515 1517 1519 1520 1520 1521 1522 1524 1527 1529 1530 1532 1534 1537 1539 1541 1544 1548 1550 1553 1555 1556 1558 1559 1561 1563 1565 1567 1568 1569 1570 1571 1572 1573 1573 1574 1574 1575 1576 1576 1577 1578 1579 1579 1580 1581 1583 1584 1585 1586 1588 1589 1590 1591 1591 1591 1591 1591 1592 1593 1594 1594 1595 1595 1595 1596 1596 1596 1596 1597 1597 1597 1598 1598 1597 1598 1598 1598 1598 1598 1597
1515 1514 1513 1513 1515 1516 1516 1518 1520 1522 1524 1526 1529 1530 1531 1532 1533 1535 1538 1540 1543 1545 1548 1551 1553 1555 1557 1560 1562 1563 1564 1565 1565 1566 1567 1568 1570 1571 1572 1572 1573 1573 1574 1574 1575 1576 1577 1578 1578 1579 1580 1581 1582 1583 1585 1586 1588 1588 1589 1589 1590 1590 1591 1591 1592 1593 1593 1594 1594 1594 1594 1595 1595 1595 1596 1596 1596 1596 1595 1596 1596 1596 1596 1596 1595
1518 1518 1516 1515 1516 1517 1517 1519 1521 1523 1525 1528 1531 1531 1532 1532 1533 1535 1537 1539 1542 1544 1546 1549 1551 1554 1557 1560 1562 1564 1564 1564 1564 1564 1565 1566 1568 1569 1570 1571 1571 1572 1572 1573 1573 1574 1575 1576 1577 1577 1578 1579 1579 1581 1582 1583 1585 1586 1587 1587 1588 1589 1589 1590 1591 1591 1592 1592 1592 1593 1593 1593 1593 1593 1593 1593 1593 1594 1593 1594 1594 1594 1594 1594 1594
1521 1521 1519 1517 1517 1518 1520 1520 1521 1522 1524 1527 1529 1531 1532 1534 1535 1536 1537 1539 1542 1544 1546 1548 1550 1553 1556 1558 1560 1562 1562 1563 1562 1562 1562 1564 1565 1567 1568 1568 1569 1570 1570 1571 1571 1572 1573 1574 1574 1575 1576 1577 1578 1579 1580 1581 1582 1584 1585 1585 1586 1587 1588 1588 1589 1589 1590 1590 1590 1591 1591 1591 1591 1591 1591 1591 1591 1592 1592 1592 1592 1592 1592 1592 1592
1520 1520 1519 1519 1519 1521 1523 1523 1523 1524 1525 1527 1529 1531 1534 1535 1536 1536 1536 1538 1540 1542 1545 1547 1549 1553 1556 1558 1560 1560 1560 1560 1559 1559 1560 1561 1562 1564 1565 1566 1566 1567 1568 1568 1568 1569 1570 1571 1572 1572 1574 1575 1576 1577 1577 1578 1580 1582 1583 1584 1584 1584 1586 1587 1587 1587 1588 1588 1588 1588 1589 1589 1589 1589 1589 1589 1589 1590 1590 1590 1590 1590 1590 1590 1590
1520 1519 1519 1520 1522 1523 1524 1525 1526 1527 1527 1528 1530 1532 1533 1534 1534 1535 1535 1537 1539 1542 1544 1547 1550 1553 1555 1557 1557 1557 1557 1557 1556 1557 1557 1558 1559 1560 1561 1562 1563 1564 1565 1565 1566 1566 1567 1568 1569 1570 1571 1572 1573 1574 1575 1576 1578 1579 1580 1581 1581 1582 1583 1584 1585 1585 1585 1585 1586 1586 1587 1587 1587 1587 1587 1587 1588 1588 1588 1588 1588 1588 1588 1588 1587
1521 1521 1521 1522 1524 1524 1525 1526 1527 1528 1528 1529 1530 1531 1531 1531 1532 1533 1534 1536 1539 1541 1543 1545 1548 1551 1552 1552 1552 1552 1553 1553 1554 1555 1555 1556 1557 1557 1557 1558 1560 1561 1562 1563 1564 1564 1565 1565 1566 1567 1569 1570 1571 1572 1573 1574 1576 1576 1577 1578 1579 1579 1580 1580 1581 1582 1582 1583 1584 1584 1584 1584 1584 1584 1585 1585 1585 1586 1585 1585 1585 1585 1585 1585 1585
1523 1523 1524 1525 1527 1527 1527 1527 1527 1528 1528 1529 1530 1530 1529 1529 1530 1530 1532 1534 1536 1537 1539 1542 1544 1546 1547 1547 1547 1548 1549 1550 1551 1552 1553 1553 1553 1554 1554 1555 1556 1558 1559 1560 1561 1561 1562 1563 1564 1565 1566 1567 1568 1569 1571 1572 1573 1574 1574 1575 1576 1576 1576 1577 1578 1579 1580 1581 1581 1582 1582 1582 1582 1582 1582 1582 1583 1583 1583 1583 1583 1583 1583 1583 1582
1528 1528 1527 1528 1530 1530 1530 1530 1529 1529 1529 1530 1530 1529 1528 1528 1529 1529 1530 1532 1534 1536 1538 1540 1542 1542 1542 1543 1544 1544 1545 1547 1548 1549 1550 1550 1551 1551 1551 1552 1553 1554 1555 1556 1557 1557 1558 1559 1561 1562 1563 1564 1565 1566 1567 1569 1570 1571 1571 1571 1573 1573 1573 1574 1575 1575 1577 1577 1578 1578 1579 1579 1579 1579 1579 1579 1580 1580 1580 1580 1580 1580 1580 1580 1580
1532 1531 1531 1532 1533 1532 1532 1531 1531 1531 1531 1530 1530 1529 1528 1528 1529 1530 1531 1532 1534 1536 1539 1540 1541 1540 1540 1541 1541 1541 1542 1544 1545 1546 1547 1547 1547 1548 1548 1549 1550 1550 1551 1552 1553 1554 1555 1556 1557 1558 1559 1560 1562 1563 1564 1565 1566 1567 1567 1568 1569 1571 1571 1571 1572 1572 1573 1574 1575 1575 1576 1576 1576 1576 1576 1576 1576 1577 1577 1577 1577 1577 1577 1577 1577
1534 1533 1532 1532 1532 1532 1531 1532 1532 1533 1532 1531 1530 1529 1528 1529 1530 1531 1532 1533 1536 1538 1539 1540 1540 1540 1540 1540 1540 1540 1541 1542 1543 1544 1544 1544 1544 1545 1545 1546 1547 1547 1548 1549 1550 1551 1552 1553 1554 1555 1555 1556 1558 1559 1560 1561 1562 1563 1564 1564 1566 1567 1568 1569 1569 1569 1570 1571 1572 1573 1573 1573 1573 1573 1573 1573 1573 1574 1574 1575 1575 1575 1574 1574 1574
1535 1534 1533 1533 1532 1532 1531 1532 1532 1532 1531 1531 1530 1530 1530 1531 1532 1534 1536 1537 1538 1539 1540 1541 1541 1540 1541 1541 1541 1542 1542 1542 1543 1543 1543 1543 1543 1543 1544 1544 1544 1545 1545 1547 1548 1548 1549 1550 1551 1551 1551 1552 1554 1555 1556 1556 1558 1559 1560 1561 1563 1564 1565 1566 1567 1567 1568 1568 1569 1569 1570 1570 1571 1571 1571 1571 1571 1571 1571 1572 1572 1572 1572 1571 1571
1536 1536 1535 1535 1535 1535 1535 1535 1534 1534 1533 1533 1533 1533 1534 1535 1536 1537 1539 1540 1540 1540 1541 1542 1542 1542 1542 1542 1542 1543 1544 1543 1543 1542 1542 1543 1543 1543 1543 1543 1543 1543 1544 1544 1545 1545 1546 1547 1548 1548 1549 1549 1550 1551 1552 1553 1554 1556 1557 1558 1560 1561 1562 1563 1564 1564 1565 1565 1566 1567 1567 1568 1568 1568 1568 1568 1568 1568 1568 1569 1569 1569 1569 1569 1568
1536 1537 1537 1537 1537 1537 1537 1537 1537 1537 1536 1536 1536 1537 1538 1539 1539 1540 1541 1541 1541 1541 1542 1543 1543 1543 1543 1543 1544 1544 1544 1544 1543 1543 1543 1543 1542 1542 1542 1543 1543 1543 1543 1543 1543 1544 1545 1546 1547 1548 1548 1548 1548 1548 1548 1549 1551 1552 1554 1555 1557 1558 1559 1560 1561 1561 1562 1563 1564 1565 1565 1566 1566 1566 1566 1566 1566 1565 1565 1566 1566 1566 1566 1566 1566
1538 1538 1539 1539 1539 1539 1538 1538 1538 1538 1538 1538 1538 1539 1540 1541 1542 1542 1542 1542 1542 1542 1543 1543 1544 1544 1544 1544 1544 1544 1545 1544 1544 1543 1543 1543 1542 1542 1542 1542 1542 1542 1542 1542 1543 1544 1546 1546 1547 1547 1547 1547 1547 1547 1547 1547 1548 1550 1551 1553 1554 1556 1557 1558 1559 1559 1560 1560 1561 1562 1563 1563 1564 1564 1564 1564 1564 1563 1563 1563 1564 1564 1564 1564 1564
1539 1540 1540 1540 1540 1540 1539 1539 1538 1538 1538 1539 1539 1540 1541 1541 1542 1543 1543 1543 1543 1543 1542 1543 1544 1545 1545 1545 1545 1545 1545 1545 1545 1545 1544 1543 1543 1543 1542 1542 1542 1542 1543 1543 1544 1545 1546 1546 1547 1547 1546 1546 1547 1547 1547 1547 1547 1549 1551 1552 1553 1554 1555 1556 1557 1558 1558 1559 1560 1560 1561 1562 1562 1562 1562 1562 1562 1562 1562 1562 1562 1562 1563 1563 1562
1540 1540 1540 1541 1541 1541 1540 1539 1538 1538 1539 1539 1540 1541 1542 1542 1543 1543 1543 1543 1543 1543 1543 1544 1545 1546 1546 1546 1546 1546 1546 1546 1545 1546 1546 1545 1544 1544 1544 1543 1543 1543 1543 1543 1544 1545 1546 1547 1547 1547 1546 1547 1547 1547 1547 1547 1548 1549 1551 1552 1553 1553 1554 1556 1557 1557 1557 1558 1558 1559 1560 1560 1561 1561 1561 1561 1561 1561 1561 1561 1562 1562 1562 1562 1561
1541 1541 1541 1541 1541 1541 1540 1539 1538 1538 1539 1539 1540 1541 1542 1543 1543 1543 1543 1543 1543 1543 1543 1545 1546 1546 1546 1546 1547 1546 1546 1546 1546 1546 1546 1546 1546 1545 1545 1545 1545 1545 1545 1544 1544 1545 1546 1547 1547 1547 1548 1548 1548 1548 1548 1548 1549 1550 1551 1552 1552 1553 1554 1555 1556 1556 1556 1557 1558 1558 1559 1559 1560 1560 1560 1560 1560 1561 1561 1561 1561 1561 1561 1560 1560
1543 1542 1543 1542 1542 1541 1540 1539 1539 1539 1539 1540 1541 1541 1542 1542 1543 1543 1543 1543 1543 1543 1543 1544 1545 1546 1546 1546 1547 1547 1546 1546 1546 1546 1547 1546 1546 1546 1546 1546 1547 1547 1547 1546 1546 1546 1547 1547 1548 1548 1548 1548 1548 1548 1548 1549 1550 1550 1551 1552 1552 1553 1554 1554 1555 1556 1556 1557 1557 1558 1558 1559 1559 1560 1560 1560 1560 1560 1560 1560 1559 1559 1559 1560 1560
1544 1544 1544 1543 1542 1542 1541 1540 1540 1539 1539 1540 1541 1541 1542 1542 1543 1543 1543 1543 1543 1543 1543 1544 1544 1544 1545 1546 1547 1547 1547 1546 1546 1546 1546 1546 1546 1546 1547 1548 1549 1548 1547 1548 1548 1548 1548 1548 1548 1549 1549 1548 1548 1548 1549 1549 1550 1550 1551 1551 1552 1553 1553 1554 1554 1555 1555 1556 1557 1557 1558 1558 1558 1559 1559 1559 1559 1559 1559 1558 1558 1558 1559 1559 1558
1544 1545 1544 1543 1543 1543 1542 1542 1541 1540 1540 1541 1541 1541 1542 1542 1543 1543 1543 1543 1542 1542 1543 1544 1544 1544 1544 1545 1546 1547 1547 1546 1546 1546 1546 1546 1547 1548 1548 1549 1549 1548 1547 1548 1549 1549 1549 1549 1549 1549 1549 1549 1548 1548 1548 1549 1549 1550 1550 1551 1551 1552 1552 1552 1553 1554 1554 1555 1556 1556 1557 1557 1557 1558 1558 1558 1558 1558 1557 1557 1556 1556 1557 1557 1557
1544 1545 1544 1544 1544 1544 1543 1543 1543 1542 1542 1541 1541 1542 1542 1542 1543 1543 1544 1543 1542 1541 1542 1542 1543 1544 1544 1544 1546 1547 1548 1548 1547 1546 1546 1547 1548 1549 1549 1549 1549 1548 1548 1549 1550 1549 1549 1549 1549 1548 1548 1548 1548 1547 1547 1548 1548 1548 1549 1549 1549 1550 1550 1551 1552 1552 1553 1554 1555 1555 1556 1556 1556 1556 1556 1557 1557 1556 1556 1556 1555 1555 1555 1555 1555